Kake, AK

3:43 AM AKST on November 21, 2017 (GMT -0900)
Kake

Weather History for PAFE - November, 2012

Change the Weather History Date:

Friday, November 23, 2012

  Actual Average Record
Temperature  
Mean Temperature 40 °F -  
Max Temperature 42 °F 38 °F 51 °F (2005)
Min Temperature 37 °F 31 °F 8 °F (1996)
Degree Days  
Heating Degree Days 26    
Moisture  
Dew Point 32 °F    
Average Humidity 73    
Maximum Humidity 81    
Minimum Humidity 61    
Precipitation  
Precipitation 0.00 in - - ()
Sea Level Pressure  
Sea Level Pressure 29.50 in    
Wind  
Wind Speed 14 mph (ESE)    
Max Wind Speed 21 mph    
Max Gust Speed 30 mph    
Visibility 10 miles    
Events      
Averages and records for this station are not official NWS values.
T = Trace of Precipitation, MM = Missing Value Source: NWS Daily Summary

Daily Weather History Graph

Daily Weather History Graph

Search for Another Location

Airport or City:

Trip Planner

Search our weather history database for the weather conditions in past years. The results will help you decide how hot, cold, wet, or windy it might be!

Date:

Astronomy

Nov. 23, 2012 Rise Set
Actual Time 7:54 AM AKST 3:29 PM AKST
Civil Twilight 7:09 AM AKST 4:14 PM AKST
Nautical Twilight 6:20 AM AKST 5:03 PM AKST
Astronomical Twilight 5:35 AM AKST 5:48 PM AKST
Moon 1:29 PM AKST (11/23) 2:33 AM AKST (11/23)
Length of Visible Light 9h 05m
Length of Day
7h 34m
Waxing Gibbous, 81% of the Moon is Illuminated
Nov 23
Waxing Gibbous
Nov 28
Full
Dec 6
Last Quarter
Dec 12
New
Dec 19
First Quarter

Hourly Weather History & Observations

Time (AKST) Temp. Windchill Dew Point Humidity Pressure Visibility Wind Dir Wind Speed Gust Speed Precip Events Conditions
12:16 AM 37.4 °F 29.3 °F 32.0 °F 81% 29.47 in 10.0 mi East 12.7 mph 18.4 mph N/A   Mostly Cloudy
12:36 AM 37.4 °F 29.8 °F 32.0 °F 81% 29.47 in 10.0 mi East 11.5 mph 20.7 mph N/A   Mostly Cloudy
12:56 AM 39.2 °F 30.8 °F 32.0 °F 75% 29.48 in 10.0 mi East 15.0 mph 23.0 mph N/A   Mostly Cloudy
1:16 AM 39.2 °F 31.6 °F 32.0 °F 75% 29.48 in 10.0 mi East 12.7 mph 18.4 mph N/A   Overcast
1:36 AM 39.2 °F 31.2 °F 32.0 °F 75% 29.48 in 10.0 mi East 13.8 mph 21.9 mph N/A   Overcast
1:56 AM 39.2 °F 32.0 °F 32.0 °F 75% 29.48 in 10.0 mi East 11.5 mph 18.4 mph N/A   Overcast
2:16 AM 39.2 °F 31.2 °F 32.0 °F 75% 29.49 in 10.0 mi East 13.8 mph 20.7 mph N/A   Overcast
2:36 AM 39.2 °F 31.2 °F 32.0 °F 75% 29.49 in 10.0 mi East 13.8 mph 19.6 mph N/A   Overcast
3:16 AM 39.2 °F 30.5 °F 32.0 °F 75% 29.49 in 10.0 mi East 16.1 mph 21.9 mph N/A   Overcast
3:36 AM 39.2 °F 30.8 °F 33.8 °F 81% 29.49 in 10.0 mi East 15.0 mph 20.7 mph N/A   Mostly Cloudy
3:56 AM 39.2 °F 31.2 °F 32.0 °F 75% 29.49 in 10.0 mi East 13.8 mph 26.5 mph N/A   Mostly Cloudy
4:16 AM 39.2 °F 31.2 °F 32.0 °F 75% 29.49 in 10.0 mi East 13.8 mph 21.9 mph N/A   Overcast
4:36 AM 39.2 °F 31.6 °F 33.8 °F 81% 29.49 in 10.0 mi ESE 12.7 mph 20.7 mph N/A   Mostly Cloudy
4:56 AM 39.2 °F 31.2 °F 32.0 °F 75% 29.50 in 10.0 mi East 13.8 mph 21.9 mph N/A   Scattered Clouds
5:16 AM 39.2 °F 32.0 °F 32.0 °F 75% 29.50 in 10.0 mi ESE 11.5 mph 20.7 mph N/A   Mostly Cloudy
5:36 AM 37.4 °F 29.3 °F 32.0 °F 81% 29.49 in 10.0 mi East 12.7 mph 19.6 mph N/A   Partly Cloudy
5:56 AM 39.2 °F 31.2 °F 30.2 °F 70% 29.50 in 10.0 mi East 13.8 mph - N/A   Clear
6:16 AM 39.2 °F 30.5 °F 30.2 °F 70% 29.49 in 10.0 mi East 16.1 mph 19.6 mph N/A   Clear
6:36 AM 39.2 °F 32.0 °F 30.2 °F 70% 29.50 in 10.0 mi East 11.5 mph 20.7 mph N/A   Clear
6:56 AM 39.2 °F 32.0 °F 30.2 °F 70% 29.50 in 10.0 mi East 11.5 mph - N/A   Scattered Clouds
7:16 AM 39.2 °F 31.2 °F 30.2 °F 70% 29.50 in 10.0 mi East 13.8 mph 20.7 mph N/A   Scattered Clouds
7:36 AM 37.4 °F 30.8 °F 30.2 °F 75% 29.50 in 10.0 mi East 9.2 mph 17.3 mph N/A   Scattered Clouds
7:56 AM 39.2 °F 31.6 °F 30.2 °F 70% 29.51 in 10.0 mi ESE 12.7 mph 20.7 mph N/A   Mostly Cloudy
8:16 AM 39.2 °F 31.6 °F 30.2 °F 70% 29.51 in 10.0 mi East 12.7 mph 19.6 mph N/A   Scattered Clouds
8:36 AM 39.2 °F 31.6 °F 30.2 °F 70% 29.51 in 10.0 mi East 12.7 mph 19.6 mph N/A   Scattered Clouds
8:56 AM 39.2 °F 31.6 °F 30.2 °F 70% 29.52 in 10.0 mi ESE 12.7 mph 19.6 mph N/A   Scattered Clouds
9:16 AM 39.2 °F 32.5 °F 30.2 °F 70% 29.52 in 10.0 mi East 10.4 mph 16.1 mph N/A   Mostly Cloudy
9:36 AM 39.2 °F 32.0 °F 30.2 °F 70% 29.52 in 10.0 mi ESE 11.5 mph 20.7 mph N/A   Mostly Cloudy
9:56 AM 41.0 °F 33.1 °F 30.2 °F 65% 29.52 in 10.0 mi ESE 15.0 mph 26.5 mph N/A   Mostly Cloudy
10:16 AM 41.0 °F 32.8 °F 30.2 °F 65% 29.52 in 10.0 mi ESE 16.1 mph 25.3 mph N/A   Scattered Clouds
10:36 AM 39.2 °F 32.0 °F 30.2 °F 70% 29.52 in 10.0 mi East 11.5 mph 21.9 mph N/A   Mostly Cloudy
10:56 AM 41.0 °F 34.3 °F 30.2 °F 65% 29.53 in 10.0 mi East 11.5 mph 19.6 mph N/A   Mostly Cloudy
11:16 AM 41.0 °F 33.5 °F 30.2 °F 65% 29.52 in 10.0 mi ESE 13.8 mph 26.5 mph N/A   Overcast
11:36 AM 41.0 °F 34.7 °F 30.2 °F 65% 29.52 in 10.0 mi ESE 10.4 mph 21.9 mph N/A   Overcast
11:56 AM 41.0 °F 33.5 °F 30.2 °F 65% 29.52 in 10.0 mi ESE 13.8 mph 23.0 mph N/A   Mostly Cloudy
12:16 PM 41.0 °F 33.5 °F 32.0 °F 70% 29.51 in 10.0 mi ESE 13.8 mph 26.5 mph N/A   Overcast
12:36 PM 41.0 °F 32.5 °F 30.2 °F 65% 29.51 in 10.0 mi ESE 17.3 mph 24.2 mph N/A   Overcast
12:56 PM 41.0 °F 32.5 °F 32.0 °F 70% 29.51 in 10.0 mi ESE 17.3 mph 23.0 mph N/A   Overcast
1:16 PM 42.8 °F 35.1 °F 30.2 °F 61% 29.51 in 10.0 mi ESE 16.1 mph 24.2 mph N/A   Overcast
1:36 PM 42.8 °F 34.8 °F 30.2 °F 61% 29.51 in 10.0 mi ESE 17.3 mph 27.6 mph N/A   Overcast
1:56 PM 42.8 °F 34.0 °F 30.2 °F 61% 29.50 in 10.0 mi ESE 20.7 mph 29.9 mph N/A   Overcast
2:16 PM 41.0 °F 32.2 °F 30.2 °F 65% 29.51 in 10.0 mi ESE 18.4 mph 26.5 mph N/A   Mostly Cloudy
2:36 PM 41.0 °F 33.9 °F 30.2 °F 65% 29.51 in 10.0 mi ESE 12.7 mph 25.3 mph N/A   Overcast
2:56 PM 41.0 °F 33.5 °F 30.2 °F 65% 29.51 in 10.0 mi ESE 13.8 mph 27.6 mph N/A   Overcast
3:16 PM 41.0 °F 33.1 °F 30.2 °F 65% 29.51 in 10.0 mi East 15.0 mph 24.2 mph N/A   Mostly Cloudy
3:36 PM 41.0 °F 32.8 °F 30.2 °F 65% 29.51 in 10.0 mi East 16.1 mph 20.7 mph N/A   Overcast
3:56 PM 39.2 °F 30.5 °F 30.2 °F 70% 29.51 in 10.0 mi East 16.1 mph 21.9 mph N/A   Overcast
4:16 PM 39.2 °F 31.6 °F 30.2 °F 70% 29.50 in 10.0 mi East 12.7 mph 20.7 mph N/A   Overcast
4:36 PM 39.2 °F 30.5 °F 32.0 °F 75% 29.51 in 10.0 mi East 16.1 mph 24.2 mph N/A   Overcast
4:56 PM 39.2 °F 30.8 °F 32.0 °F 75% 29.50 in 10.0 mi East 15.0 mph 21.9 mph N/A   Overcast
6:16 PM 39.2 °F 31.6 °F 32.0 °F 75% 29.51 in 10.0 mi ESE 12.7 mph 19.6 mph N/A   Overcast
6:36 PM 37.4 °F 28.5 °F 32.0 °F 81% 29.51 in 10.0 mi East 15.0 mph 23.0 mph N/A   Overcast
6:56 PM 37.4 °F 28.9 °F 32.0 °F 81% 29.51 in 10.0 mi East 13.8 mph 27.6 mph N/A   Overcast
7:16 PM 37.4 °F 28.5 °F 32.0 °F 81% 29.51 in 10.0 mi East 15.0 mph 27.6 mph N/A   Overcast
7:36 PM 39.2 °F 30.8 °F 32.0 °F 75% 29.51 in 10.0 mi East 15.0 mph 24.2 mph N/A   Mostly Cloudy
7:56 PM 39.2 °F 30.8 °F 33.8 °F 81% 29.51 in 10.0 mi East 15.0 mph 23.0 mph N/A   Mostly Cloudy
8:16 PM 39.2 °F 31.2 °F 32.0 °F 75% 29.51 in 10.0 mi East 13.8 mph 25.3 mph N/A   Scattered Clouds
8:36 PM 39.2 °F 31.2 °F 33.8 °F 81% 29.51 in 10.0 mi East 13.8 mph 23.0 mph N/A   Mostly Cloudy
8:56 PM 39.2 °F 31.2 °F 32.0 °F 75% 29.50 in 10.0 mi East 13.8 mph 21.9 mph N/A   Overcast
9:16 PM 39.2 °F 30.5 °F 32.0 °F 75% 29.50 in 10.0 mi East 16.1 mph 24.2 mph N/A   Overcast
9:36 PM 39.2 °F 30.2 °F 33.8 °F 81% 29.50 in 10.0 mi East 17.3 mph 28.8 mph N/A   Overcast
9:56 PM 39.2 °F 30.2 °F 33.8 °F 81% 29.50 in 10.0 mi East 17.3 mph 27.6 mph N/A   Overcast
10:16 PM 39.2 °F 30.2 °F 33.8 °F 81% 29.50 in 10.0 mi East 17.3 mph 28.8 mph N/A   Overcast
10:36 PM 39.2 °F 30.8 °F 33.8 °F 81% 29.50 in 10.0 mi East 15.0 mph 28.8 mph N/A   Overcast
10:56 PM 39.2 °F 30.8 °F 33.8 °F 81% 29.50 in 10.0 mi East 15.0 mph 26.5 mph N/A   Overcast
11:16 PM 39.2 °F 30.8 °F 33.8 °F 81% 29.50 in 10.0 mi East 15.0 mph 28.8 mph N/A   Overcast
11:36 PM 39.2 °F 30.8 °F 33.8 °F 81% 29.50 in 10.0 mi East 15.0 mph 27.6 mph N/A   Overcast
11:56 PM 39.2 °F 29.6 °F 33.8 °F 81% 29.51 in 10.0 mi East 19.6 mph 28.8 mph N/A   Overcast